ARG1597 SAEZ-SBFL

Flight info

Callsign ARG1597
Flight time 1h 38m
Altitude 37000
Route DORVO1E DORVO UN857 ITBEB UM540 DADMO
Aircraft B38M/M-SDE1FGHILORVWXY/HB1

Departure

Time 2026-04-28 17:59
Airport Ezeiza International Airport - Ministro Pistarini (SAEZ)

Arrival

Time 2026-04-28 19:37
Airport Hercílio Luz International Airport (SBFL)
Time Latitude Longitude Altitude Speed Heading
2026-04-28 17:09 -34.81643 -58.54358 77 ft 0 kts 11°
2026-04-28 17:49 -34.81645 -58.54359 77 ft 2 kts 11°
2026-04-28 17:49 -34.81670 -58.54366 78 ft 4 kts 19°
2026-04-28 17:49 -34.81695 -58.54379 69 ft 4 kts 27°
2026-04-28 17:49 -34.81718 -58.54396 78 ft 4 kts 38°
2026-04-28 17:50 -34.81738 -58.54418 70 ft 4 kts 51°
2026-04-28 17:50 -34.81752 -58.54445 70 ft 4 kts 72°
2026-04-28 17:50 -34.81754 -58.54469 78 ft 0 kts 97°
2026-04-28 17:53 -34.81754 -58.54468 78 ft 1 kts 96°
2026-04-28 17:53 -34.81757 -58.54437 75 ft 9 kts 96°
2026-04-28 17:53 -34.81771 -58.54310 74 ft 22 kts 97°
2026-04-28 17:54 -34.81790 -58.54132 73 ft 15 kts 99°
2026-04-28 17:54 -34.81774 -58.54004 78 ft 17 kts 64°
2026-04-28 17:54 -34.81713 -58.53875 77 ft 18 kts 60°
2026-04-28 17:54 -34.81731 -58.53730 75 ft 19 kts 140°
2026-04-28 17:55 -34.81852 -58.53659 70 ft 20 kts 155°
2026-04-28 17:55 -34.81927 -58.53520 73 ft 21 kts 104°
2026-04-28 17:55 -34.81964 -58.53334 78 ft 25 kts 103°
2026-04-28 17:55 -34.82010 -58.53102 82 ft 30 kts 103°
2026-04-28 17:56 -34.82048 -58.52914 83 ft 23 kts 104°
2026-04-28 17:56 -34.82088 -58.52714 75 ft 26 kts 103°
2026-04-28 17:56 -34.82131 -58.52494 78 ft 27 kts 104°
2026-04-28 17:56 -34.82176 -58.52271 78 ft 23 kts 104°
2026-04-28 17:57 -34.82215 -58.52079 74 ft 24 kts 103°
2026-04-28 17:57 -34.82254 -58.51883 70 ft 20 kts 104°
2026-04-28 17:57 -34.82317 -58.51787 73 ft 15 kts 185°
2026-04-28 17:57 -34.82418 -58.51814 80 ft 15 kts 193°
2026-04-28 17:58 -34.82503 -58.51857 88 ft 13 kts 227°
2026-04-28 17:58 -34.82510 -58.51969 86 ft 16 kts 283°
2026-04-28 17:58 -34.82439 -58.52363 86 ft 90 kts 282°
2026-04-28 17:58 -34.82249 -58.53422 85 ft 163 kts 282°
2026-04-28 17:59 -34.81990 -58.54881 701 ft 186 kts 284°
2026-04-28 17:59 -34.81683 -58.56483 1618 ft 203 kts 285°
2026-04-28 17:59 -34.81328 -58.58191 2509 ft 214 kts 287°
2026-04-28 17:59 -34.81005 -58.59978 3298 ft 218 kts 277°
2026-04-28 18:00 -34.81117 -58.61825 3950 ft 230 kts 253°
2026-04-28 18:00 -34.81996 -58.63504 4615 ft 248 kts 224°
2026-04-28 18:00 -34.83377 -58.64877 5226 ft 261 kts 226°
2026-04-28 18:00 -34.84641 -58.66426 6164 ft 257 kts 227°
2026-04-28 18:01 -34.85910 -58.67989 6970 ft 260 kts 227°
2026-04-28 18:01 -34.87273 -58.69457 7773 ft 267 kts 212°
2026-04-28 18:01 -34.89070 -58.70023 8640 ft 275 kts 182°
2026-04-28 18:01 -34.90965 -58.69433 9308 ft 292 kts 155°
2026-04-28 18:02 -34.92559 -58.67864 10080 ft 303 kts 133°
2026-04-28 18:02 -34.93547 -58.65508 10481 ft 327 kts 104°
2026-04-28 18:02 -34.93681 -58.62664 10820 ft 347 kts 91°
2026-04-28 18:02 -34.93850 -58.59673 11223 ft 360 kts 97°
2026-04-28 18:03 -34.94072 -58.56577 11803 ft 368 kts 96°
2026-04-28 18:03 -34.94270 -58.53453 12553 ft 372 kts 96°
2026-04-28 18:03 -34.94459 -58.50281 13225 ft 378 kts 95°
2026-04-28 18:03 -34.94639 -58.47070 13915 ft 383 kts 95°
2026-04-28 18:04 -34.94815 -58.43861 14596 ft 387 kts 95°
2026-04-28 18:04 -34.94993 -58.40560 15273 ft 393 kts 95°
2026-04-28 18:04 -34.95170 -58.37263 15938 ft 397 kts 95°
2026-04-28 18:04 -34.95350 -58.33881 16582 ft 402 kts 94°
2026-04-28 18:05 -34.95532 -58.30460 17211 ft 407 kts 95°
2026-04-28 18:05 -34.95655 -58.28126 17642 ft 410 kts 94°
2026-04-28 18:05 -34.95895 -58.23496 18432 ft 416 kts 94°
2026-04-28 18:05 -34.96078 -58.19965 18997 ft 420 kts 94°
2026-04-28 18:06 -34.96262 -58.16386 19551 ft 425 kts 94°
2026-04-28 18:06 -34.96445 -58.12782 20114 ft 428 kts 94°
2026-04-28 18:06 -34.96629 -58.09139 20626 ft 433 kts 94°
2026-04-28 18:06 -34.96814 -58.05461 21149 ft 437 kts 93°
2026-04-28 18:07 -34.96999 -58.01744 21664 ft 441 kts 93°
2026-04-28 18:07 -34.97184 -57.98000 22147 ft 445 kts 93°
2026-04-28 18:07 -34.97317 -57.94218 22605 ft 449 kts 86°
2026-04-28 18:07 -34.96788 -57.90484 23053 ft 446 kts 67°
2026-04-28 18:08 -34.95432 -57.87113 23454 ft 442 kts 50°
2026-04-28 18:08 -34.93563 -57.84126 23750 ft 446 kts 46°
2026-04-28 18:08 -34.91618 -57.81145 24151 ft 450 kts 45°
2026-04-28 18:08 -34.89641 -57.78174 24613 ft 452 kts 45°
2026-04-28 18:09 -34.87637 -57.75200 24996 ft 456 kts 45°
2026-04-28 18:09 -34.85637 -57.72255 25448 ft 458 kts 44°
2026-04-28 18:09 -34.83600 -57.69263 25865 ft 461 kts 44°
2026-04-28 18:09 -34.81547 -57.66254 26270 ft 463 kts 44°
2026-04-28 18:10 -34.79479 -57.63224 26645 ft 466 kts 44°
2026-04-28 18:10 -34.77401 -57.60182 27032 ft 468 kts 44°
2026-04-28 18:10 -34.75314 -57.57130 27408 ft 471 kts 44°
2026-04-28 18:10 -34.73216 -57.54066 27776 ft 473 kts 44°
2026-04-28 18:11 -34.71103 -57.50986 28113 ft 476 kts 44°
2026-04-28 18:11 -34.68975 -57.47891 28470 ft 477 kts 44°
2026-04-28 18:11 -34.66838 -57.44784 28806 ft 480 kts 44°
2026-04-28 18:11 -34.64693 -57.41670 29139 ft 482 kts 43°
2026-04-28 18:12 -34.62535 -57.38538 29493 ft 484 kts 43°
2026-04-28 18:12 -34.60399 -57.35441 29805 ft 486 kts 43°
2026-04-28 18:12 -34.58223 -57.32290 30117 ft 488 kts 43°
2026-04-28 18:12 -34.56035 -57.29124 30408 ft 490 kts 43°
2026-04-28 18:13 -34.53838 -57.25946 30745 ft 492 kts 43°
2026-04-28 18:13 -34.51638 -57.22769 31025 ft 494 kts 43°
2026-04-28 18:13 -34.49426 -57.19576 31299 ft 496 kts 43°
2026-04-28 18:13 -34.47204 -57.16372 31593 ft 497 kts 43°
2026-04-28 18:14 -34.44974 -57.13160 31898 ft 498 kts 43°
2026-04-28 18:14 -34.42738 -57.09942 32159 ft 501 kts 43°
2026-04-28 18:14 -34.40491 -57.06710 32424 ft 503 kts 43°
2026-04-28 18:14 -34.38233 -57.03467 32744 ft 503 kts 43°
2026-04-28 18:15 -34.35979 -57.00231 33101 ft 502 kts 43°
2026-04-28 18:15 -34.33732 -56.97009 33470 ft 501 kts 43°
2026-04-28 18:15 -34.31484 -56.93789 33843 ft 500 kts 43°
2026-04-28 18:15 -34.29245 -56.90583 34193 ft 499 kts 43°
2026-04-28 18:16 -34.27002 -56.87375 34527 ft 498 kts 43°
2026-04-28 18:16 -34.24764 -56.84183 34843 ft 498 kts 43°
2026-04-28 18:16 -34.22526 -56.80994 35133 ft 498 kts 42°
2026-04-28 18:16 -34.20289 -56.77806 35441 ft 497 kts 42°
2026-04-28 18:17 -34.18053 -56.74624 35726 ft 496 kts 42°
2026-04-28 18:17 -34.15824 -56.71457 35989 ft 496 kts 42°
2026-04-28 18:17 -34.13589 -56.68282 36237 ft 496 kts 42°
2026-04-28 18:17 -34.11358 -56.65115 36475 ft 495 kts 42°
2026-04-28 18:18 -34.09122 -56.61946 36711 ft 495 kts 41°
2026-04-28 18:18 -34.06921 -56.58828 36976 ft 494 kts 41°
2026-04-28 18:18 -34.03958 -56.54632 37055 ft 488 kts 41°
2026-04-28 18:19 -33.98862 -56.47434 37027 ft 484 kts 41°
2026-04-28 18:19 -33.94495 -56.41275 37031 ft 483 kts 40°
2026-04-28 18:20 -33.90118 -56.35113 37039 ft 484 kts 40°
2026-04-28 18:20 -33.85728 -56.28975 37035 ft 483 kts 40°
2026-04-28 18:21 -33.81349 -56.22864 37031 ft 482 kts 40°
2026-04-28 18:21 -33.76970 -56.16732 37036 ft 482 kts 40°
2026-04-28 18:22 -33.72602 -56.10620 37033 ft 482 kts 40°
2026-04-28 18:22 -33.68254 -56.04545 37039 ft 482 kts 40°
2026-04-28 18:23 -33.63881 -55.98447 37033 ft 482 kts 40°
2026-04-28 18:23 -33.59496 -55.92343 37039 ft 482 kts 40°
2026-04-28 18:24 -33.55844 -55.87267 37043 ft 484 kts 40°
2026-04-28 18:24 -33.50695 -55.80123 37043 ft 484 kts 40°
2026-04-28 18:25 -33.46290 -55.74022 37043 ft 484 kts 39°
2026-04-28 18:26 -33.39689 -55.64898 37041 ft 485 kts 39°
2026-04-28 18:26 -33.35263 -55.58794 37033 ft 485 kts 39°
2026-04-28 18:27 -33.30832 -55.52693 37045 ft 486 kts 39°
2026-04-28 18:27 -33.26388 -55.46584 37042 ft 486 kts 39°
2026-04-28 18:28 -33.21948 -55.40491 37046 ft 486 kts 39°
2026-04-28 18:28 -33.17503 -55.34403 37043 ft 486 kts 39°
2026-04-28 18:29 -33.13056 -55.28320 37042 ft 487 kts 39°
2026-04-28 18:29 -33.08614 -55.22255 37047 ft 488 kts 39°
2026-04-28 18:30 -33.04138 -55.16155 37049 ft 488 kts 39°
2026-04-28 18:30 -32.99663 -55.10066 37052 ft 489 kts 38°
2026-04-28 18:31 -32.95188 -55.03986 37051 ft 489 kts 38°
2026-04-28 18:31 -32.90699 -54.97899 37054 ft 489 kts 38°
2026-04-28 18:32 -32.86203 -54.91810 37053 ft 490 kts 38°
2026-04-28 18:32 -32.81703 -54.85729 37052 ft 489 kts 38°
2026-04-28 18:33 -32.77198 -54.79649 37059 ft 490 kts 38°
2026-04-28 18:33 -32.72693 -54.73580 37053 ft 490 kts 38°
2026-04-28 18:34 -32.68212 -54.67553 37052 ft 490 kts 38°
2026-04-28 18:34 -32.63693 -54.61484 37053 ft 490 kts 38°
2026-04-28 18:35 -32.59169 -54.55420 37054 ft 491 kts 38°
2026-04-28 18:35 -32.54629 -54.49345 37057 ft 493 kts 38°
2026-04-28 18:36 -32.50083 -54.43270 37043 ft 493 kts 38°
2026-04-28 18:36 -32.45526 -54.37190 37047 ft 493 kts 38°
2026-04-28 18:37 -32.40965 -54.31114 37044 ft 494 kts 37°
2026-04-28 18:37 -32.36390 -54.25029 37040 ft 494 kts 37°
2026-04-28 18:38 -32.31841 -54.18890 37045 ft 497 kts 38°
2026-04-28 18:38 -32.27297 -54.12732 37043 ft 497 kts 38°
2026-04-28 18:39 -32.22747 -54.06578 37044 ft 497 kts 38°
2026-04-28 18:39 -32.18224 -54.00470 37055 ft 497 kts 38°
2026-04-28 18:40 -32.13668 -53.94330 37054 ft 497 kts 38°
2026-04-28 18:40 -32.09106 -53.88190 37055 ft 497 kts 38°
2026-04-28 18:41 -32.04540 -53.82056 37051 ft 497 kts 38°
2026-04-28 18:41 -31.99974 -53.75933 37055 ft 497 kts 38°
2026-04-28 18:42 -31.95410 -53.69823 37059 ft 497 kts 37°
2026-04-28 18:42 -31.90835 -53.63708 37064 ft 498 kts 37°
2026-04-28 18:43 -31.86256 -53.57598 37064 ft 498 kts 37°
2026-04-28 18:43 -31.81693 -53.51518 37059 ft 498 kts 37°
2026-04-28 18:44 -31.77105 -53.45418 37064 ft 498 kts 37°
2026-04-28 18:44 -31.70208 -53.36262 37075 ft 499 kts 37°
2026-04-28 18:45 -31.65608 -53.30168 37071 ft 498 kts 37°
2026-04-28 18:45 -31.61011 -53.24088 37067 ft 499 kts 37°
2026-04-28 18:46 -31.56396 -53.17994 37076 ft 499 kts 37°
2026-04-28 18:46 -31.51780 -53.11909 37072 ft 499 kts 37°
2026-04-28 18:47 -31.47161 -53.05829 37078 ft 499 kts 36°
2026-04-28 18:47 -31.42568 -52.99794 37075 ft 499 kts 36°
2026-04-28 18:48 -31.37940 -52.93722 37075 ft 500 kts 36°
2026-04-28 18:48 -31.33306 -52.87651 37075 ft 500 kts 36°
2026-04-28 18:49 -31.30206 -52.83591 37081 ft 500 kts 36°
2026-04-28 18:49 -31.24030 -52.75516 37078 ft 500 kts 36°
2026-04-28 18:50 -31.19415 -52.69500 37077 ft 500 kts 36°
2026-04-28 18:50 -31.14766 -52.63448 37080 ft 500 kts 36°
2026-04-28 18:51 -31.10117 -52.57406 37092 ft 500 kts 36°
2026-04-28 18:51 -31.05474 -52.51380 37074 ft 498 kts 36°
2026-04-28 18:52 -31.00833 -52.45369 37083 ft 499 kts 35°
2026-04-28 18:52 -30.96191 -52.39365 37092 ft 499 kts 35°
2026-04-28 18:53 -30.91571 -52.33397 37084 ft 499 kts 35°
2026-04-28 18:53 -30.86866 -52.27465 37095 ft 497 kts 34°
2026-04-28 18:54 -30.82148 -52.21564 37082 ft 498 kts 34°
2026-04-28 18:54 -30.77423 -52.15657 37099 ft 498 kts 34°
2026-04-28 18:55 -30.73495 -52.10754 37091 ft 499 kts 34°
2026-04-28 18:55 -30.67955 -52.03855 37084 ft 500 kts 34°
2026-04-28 18:56 -30.63197 -51.97943 37075 ft 501 kts 34°
2026-04-28 18:56 -30.58461 -51.92067 37104 ft 502 kts 34°
2026-04-28 18:57 -30.53697 -51.86165 37102 ft 501 kts 33°
2026-04-28 18:57 -30.48916 -51.80252 37107 ft 502 kts 33°
2026-04-28 18:58 -30.44168 -51.74297 37096 ft 505 kts 36°
2026-04-28 18:58 -30.39512 -51.68185 37102 ft 505 kts 35°
2026-04-28 18:59 -30.34849 -51.62112 37102 ft 505 kts 35°
2026-04-28 18:59 -30.30191 -51.56057 37097 ft 505 kts 35°
2026-04-28 19:00 -30.25519 -51.49994 37073 ft 505 kts 35°
2026-04-28 19:00 -30.20844 -51.43935 37106 ft 505 kts 35°
2026-04-28 19:01 -30.16161 -51.37874 37103 ft 504 kts 35°
2026-04-28 19:01 -30.11482 -51.31828 37095 ft 504 kts 35°
2026-04-28 19:02 -30.06802 -51.25793 37108 ft 504 kts 35°
2026-04-28 19:02 -30.02124 -51.19765 37098 ft 504 kts 35°
2026-04-28 19:03 -29.97438 -51.13746 37095 ft 504 kts 35°
2026-04-28 19:03 -29.92753 -51.07740 37101 ft 503 kts 35°
2026-04-28 19:04 -29.88098 -51.01781 37103 ft 503 kts 35°
2026-04-28 19:04 -29.83413 -50.95793 37090 ft 503 kts 35°
2026-04-28 19:05 -29.78730 -50.89815 37112 ft 503 kts 35°
2026-04-28 19:05 -29.74037 -50.83835 37117 ft 503 kts 35°
2026-04-28 19:06 -29.70141 -50.78876 37103 ft 502 kts 35°
2026-04-28 19:06 -29.64660 -50.71912 37116 ft 502 kts 35°
2026-04-28 19:07 -29.60760 -50.66964 37119 ft 502 kts 35°
2026-04-28 19:07 -29.56070 -50.61020 37112 ft 502 kts 35°
2026-04-28 19:08 -29.50350 -50.54634 37102 ft 473 kts 20°
2026-04-28 19:08 -29.45861 -50.50823 37090 ft 481 kts 23°
2026-04-28 19:09 -29.40565 -50.46258 37107 ft 480 kts 23°
2026-04-28 19:09 -29.37886 -50.43957 37005 ft 481 kts 23°
2026-04-28 19:09 -29.35221 -50.41670 36734 ft 477 kts 23°
2026-04-28 19:10 -29.32566 -50.39393 36464 ft 476 kts 23°
2026-04-28 19:10 -29.29918 -50.37124 36183 ft 476 kts 23°
2026-04-28 19:10 -29.27260 -50.34847 35810 ft 476 kts 23°
2026-04-28 19:10 -29.24595 -50.32568 35007 ft 479 kts 24°
2026-04-28 19:11 -29.21926 -50.30285 34401 ft 478 kts 24°
2026-04-28 19:11 -29.19275 -50.28017 33963 ft 472 kts 24°
2026-04-28 19:11 -29.16658 -50.25783 33481 ft 468 kts 24°
2026-04-28 19:11 -29.14061 -50.23566 32953 ft 464 kts 24°
2026-04-28 19:12 -29.11479 -50.21365 32449 ft 461 kts 24°
2026-04-28 19:12 -29.08916 -50.19179 31946 ft 458 kts 24°
2026-04-28 19:12 -29.06367 -50.17008 31452 ft 455 kts 24°
2026-04-28 19:12 -29.03842 -50.14859 30956 ft 452 kts 24°
2026-04-28 19:13 -29.01330 -50.12721 30453 ft 449 kts 24°
2026-04-28 19:13 -28.98834 -50.10599 29973 ft 445 kts 24°
2026-04-28 19:13 -28.96390 -50.08522 29503 ft 442 kts 24°
2026-04-28 19:13 -28.93938 -50.06440 29029 ft 438 kts 25°
2026-04-28 19:14 -28.91496 -50.04367 28552 ft 435 kts 25°
2026-04-28 19:14 -28.89076 -50.02314 28100 ft 431 kts 25°
2026-04-28 19:14 -28.86680 -50.00284 27645 ft 428 kts 25°
2026-04-28 19:14 -28.84301 -49.98268 27187 ft 425 kts 26°
2026-04-28 19:15 -28.81932 -49.96262 26737 ft 422 kts 26°
2026-04-28 19:15 -28.79579 -49.94269 26291 ft 421 kts 26°
2026-04-28 19:15 -28.77229 -49.92283 25849 ft 417 kts 26°
2026-04-28 19:15 -28.75689 -49.90979 25560 ft 414 kts 26°
2026-04-28 19:16 -28.72603 -49.88372 25016 ft 411 kts 26°
2026-04-28 19:16 -28.70309 -49.86435 24486 ft 408 kts 27°
2026-04-28 19:16 -28.68063 -49.84541 24067 ft 406 kts 26°
2026-04-28 19:16 -28.65807 -49.82637 23672 ft 400 kts 27°
2026-04-28 19:17 -28.63577 -49.80757 23352 ft 399 kts 28°
2026-04-28 19:17 -28.61343 -49.78870 22780 ft 397 kts 28°
2026-04-28 19:17 -28.59146 -49.77015 22518 ft 390 kts 27°
2026-04-28 19:17 -28.56965 -49.75183 22114 ft 388 kts 27°
2026-04-28 19:18 -28.54803 -49.73364 21727 ft 384 kts 27°
2026-04-28 19:18 -28.52661 -49.71562 21363 ft 382 kts 27°
2026-04-28 19:18 -28.50531 -49.69770 20978 ft 380 kts 27°
2026-04-28 19:18 -28.48410 -49.67989 20609 ft 378 kts 27°
2026-04-28 19:19 -28.46396 -49.66030 20168 ft 386 kts 38°
2026-04-28 19:19 -28.44509 -49.63879 19823 ft 382 kts 37°
2026-04-28 19:19 -28.42641 -49.61781 19482 ft 380 kts 37°
2026-04-28 19:19 -28.40769 -49.59675 19124 ft 377 kts 37°
2026-04-28 19:20 -28.38910 -49.57585 18761 ft 374 kts 37°
2026-04-28 19:20 -28.37067 -49.55514 18402 ft 372 kts 38°
2026-04-28 19:20 -28.35231 -49.53452 18034 ft 370 kts 38°
2026-04-28 19:20 -28.33399 -49.51395 17673 ft 367 kts 37°
2026-04-28 19:21 -28.31610 -49.49387 17325 ft 364 kts 37°
2026-04-28 19:21 -28.29807 -49.47366 16971 ft 361 kts 38°
2026-04-28 19:21 -28.28027 -49.45371 16621 ft 358 kts 37°
2026-04-28 19:21 -28.26261 -49.43392 16262 ft 355 kts 37°
2026-04-28 19:22 -28.24510 -49.41431 15915 ft 353 kts 37°
2026-04-28 19:22 -28.23357 -49.40141 15689 ft 351 kts 38°
2026-04-28 19:22 -28.21041 -49.37552 15215 ft 348 kts 37°
2026-04-28 19:22 -28.19323 -49.35629 14868 ft 345 kts 38°
2026-04-28 19:23 -28.17621 -49.33726 14535 ft 342 kts 37°
2026-04-28 19:23 -28.15929 -49.31837 14176 ft 340 kts 38°
2026-04-28 19:23 -28.14246 -49.29957 13819 ft 338 kts 38°
2026-04-28 19:23 -28.12598 -49.28118 13494 ft 335 kts 38°
2026-04-28 19:24 -28.10942 -49.26271 13135 ft 334 kts 38°
2026-04-28 19:24 -28.09287 -49.24426 12769 ft 332 kts 38°
2026-04-28 19:24 -28.07650 -49.22602 12465 ft 329 kts 38°
2026-04-28 19:24 -28.06025 -49.20791 12137 ft 327 kts 38°
2026-04-28 19:25 -28.04411 -49.18995 11809 ft 324 kts 38°
2026-04-28 19:25 -28.02811 -49.17214 11483 ft 321 kts 38°
2026-04-28 19:25 -28.01226 -49.15449 11148 ft 319 kts 39°
2026-04-28 19:25 -27.99650 -49.13696 10818 ft 316 kts 39°
2026-04-28 19:26 -27.98112 -49.11985 10667 ft 302 kts 39°
2026-04-28 19:26 -27.96651 -49.10360 10545 ft 288 kts 39°
2026-04-28 19:26 -27.95237 -49.08792 10396 ft 280 kts 39°
2026-04-28 19:26 -27.93874 -49.07281 10296 ft 270 kts 39°
2026-04-28 19:27 -27.92522 -49.05782 10133 ft 278 kts 39°
2026-04-28 19:27 -27.91121 -49.04225 9833 ft 284 kts 39°
2026-04-28 19:27 -27.89703 -49.02656 9545 ft 287 kts 40°
2026-04-28 19:27 -27.88277 -49.01075 9239 ft 286 kts 40°
2026-04-28 19:28 -27.86879 -48.99524 8977 ft 284 kts 40°
2026-04-28 19:28 -27.85490 -48.97986 8685 ft 282 kts 40°
2026-04-28 19:28 -27.84094 -48.96440 8403 ft 280 kts 40°
2026-04-28 19:28 -27.82708 -48.94905 8098 ft 278 kts 40°
2026-04-28 19:29 -27.81338 -48.93389 7880 ft 273 kts 40°
2026-04-28 19:29 -27.80421 -48.92374 7750 ft 273 kts 40°
2026-04-28 19:29 -27.78629 -48.90393 7505 ft 272 kts 40°
2026-04-28 19:29 -27.77275 -48.88897 7260 ft 272 kts 40°
2026-04-28 19:30 -27.75921 -48.87402 7025 ft 271 kts 41°
2026-04-28 19:30 -27.74584 -48.85923 6818 ft 266 kts 41°
2026-04-28 19:30 -27.73279 -48.84484 6630 ft 260 kts 41°
2026-04-28 19:30 -27.72000 -48.83073 6443 ft 253 kts 41°
2026-04-28 19:31 -27.70757 -48.81703 6248 ft 247 kts 41°
2026-04-28 19:31 -27.69549 -48.80370 6058 ft 240 kts 41°
2026-04-28 19:31 -27.68371 -48.79070 5885 ft 233 kts 41°
2026-04-28 19:31 -27.67227 -48.77809 5733 ft 230 kts 41°
2026-04-28 19:32 -27.66028 -48.76648 5533 ft 225 kts 30°
2026-04-28 19:32 -27.64691 -48.75742 5142 ft 224 kts 28°
2026-04-28 19:32 -27.63349 -48.74843 4712 ft 225 kts 28°
2026-04-28 19:32 -27.62025 -48.73951 4323 ft 223 kts 29°
2026-04-28 19:33 -27.60714 -48.73066 3925 ft 216 kts 30°
2026-04-28 19:33 -27.59488 -48.72136 3537 ft 210 kts 45°
2026-04-28 19:33 -27.58878 -48.70718 3126 ft 196 kts 84°
2026-04-28 19:33 -27.59094 -48.69289 2853 ft 177 kts 111°
2026-04-28 19:34 -27.59629 -48.68077 2657 ft 167 kts 118°
2026-04-28 19:34 -27.60203 -48.66973 2435 ft 159 kts 120°
2026-04-28 19:34 -27.60763 -48.65919 2214 ft 155 kts 121°
2026-04-28 19:34 -27.61318 -48.64884 2011 ft 154 kts 121°
2026-04-28 19:35 -27.61873 -48.63854 1808 ft 153 kts 121°
2026-04-28 19:35 -27.62427 -48.62827 1613 ft 152 kts 121°
2026-04-28 19:35 -27.62972 -48.61812 1403 ft 152 kts 121°
2026-04-28 19:35 -27.63519 -48.60794 1199 ft 151 kts 120°
2026-04-28 19:36 -27.64064 -48.59779 999 ft 151 kts 121°
2026-04-28 19:36 -27.64607 -48.58785 845 ft 149 kts 122°
2026-04-28 19:36 -27.65154 -48.57767 672 ft 150 kts 120°
2026-04-28 19:36 -27.65684 -48.56757 412 ft 150 kts 120°
2026-04-28 19:37 -27.66231 -48.55745 220 ft 151 kts 121°
2026-04-28 19:37 -27.66588 -48.55082 60 ft 148 kts 121°
2026-04-28 19:37 -27.67155 -48.54037 28 ft 72 kts 121°
2026-04-28 19:37 -27.67316 -48.53740 26 ft 23 kts 121°
2026-04-28 19:38 -27.67402 -48.53580 27 ft 24 kts 121°
2026-04-28 19:38 -27.67489 -48.53419 29 ft 24 kts 121°
2026-04-28 19:38 -27.67565 -48.53276 30 ft 20 kts 121°
2026-04-28 19:38 -27.67620 -48.53173 29 ft 15 kts 122°
2026-04-28 19:39 -27.67682 -48.53079 30 ft 14 kts 163°
2026-04-28 19:39 -27.67773 -48.53129 29 ft 16 kts 216°
2026-04-28 19:39 -27.67789 -48.53240 29 ft 17 kts 302°
2026-04-28 19:39 -27.67722 -48.53364 29 ft 20 kts 302°
2026-04-28 19:40 -27.67644 -48.53499 29 ft 22 kts 302°
2026-04-28 19:40 -27.67560 -48.53649 29 ft 23 kts 302°
2026-04-28 19:40 -27.67473 -48.53805 29 ft 24 kts 303°
2026-04-28 19:40 -27.67382 -48.53977 29 ft 26 kts 303°
2026-04-28 19:41 -27.67302 -48.54120 29 ft 16 kts 301°
2026-04-28 19:41 -27.67243 -48.54229 29 ft 15 kts 301°
2026-04-28 19:41 -27.67208 -48.54299 29 ft 8 kts 283°
2026-04-28 19:41 -27.67239 -48.54345 29 ft 9 kts 210°
2026-04-28 19:42 -27.67293 -48.54383 29 ft 8 kts 221°
2026-04-28 19:42 -27.67325 -48.54420 29 ft 3 kts 211°
2026-04-28 19:42 -27.67344 -48.54433 29 ft 0 kts 212°